Hourly Data Report for October 13, 2013

All times are specified in Local Standard Time (LST). Add 1 hour to adjust for Daylight Saving Time where and when it is observed.

PANGNIRTUNG
NUNAVUT

66°08'36.300" N
65°42'40.500" W
22.60 m
2403049
71826
WXP

Download Data

Hourly Data (October 2013)
Hourly Data Report for October 13, 2013
Temp Definition
°C
Dew Point Temp Definition
°C
Rel Hum Definition
%
Wind Dir Definition
10's deg

Wind Spd Definition
km/h
Visibility Definition
km
Stn Press Definition
kPa
Hmdx Definition


Wind Chill Definition


Weather Definition


TIME
00:00 -0.9 -1.1 99 5 6   101.27   -3 LegendNANA
01:00 -0.5 -0.6 99 7 4   101.30   -2 LegendNANA
02:00 -0.1 -0.1 100   0   101.32     LegendNANA
03:00 0.2 0.1 99 6 4   101.33     LegendNANA
04:00 0.9 0.9 100 30 2   101.33     LegendNANA
05:00 0.5 0.5 100 7 6   101.30     LegendNANA
06:00 2.3 1.8 96 9 7   101.30     LegendNANA
07:00 1.6 1.1 96 6 6   101.25     LegendNANA
08:00 2.9 1.9 93 8 9   101.19     LegendNANA
09:00 3.1 1.5 89 10 6   101.21     LegendNANA
10:00 2.9 1.5 90 7 4   101.11     LegendNANA
11:00 3.6 1.8 88 9 6   101.07     LegendNANA
12:00 3.3 1.4 87 4 9   101.07     LegendNANA
13:00 6.5 2.2 74 8 6   101.03     LegendNANA
14:00 6.9 1.3 67 7 7   100.99     LegendNANA
15:00 7.8 0.8 61 7 9   100.93     LegendNANA
16:00 6.7 1.0 67 11 13   100.87     LegendNANA
17:00 5.4 0.7 72 7 9   100.81     LegendNANA
18:00 5.2 0.5 72 8 7   100.76     LegendNANA
19:00 5.6 -0.4 65 7 11   100.72     LegendNANA
20:00 7.9 0.0 57 9 11   100.68     LegendNANA
21:00 9.9 -1.2 46 14 26   100.64     LegendNANA
22:00 7.1 -0.1 60 7 6   100.61     LegendNANA
23:00 7.8 -1.1 53 8 17   100.57     LegendNANA

Notes on Data Quality.

Legend

  • E = Estimated
  • M = Missing
  • NA = Not Available
  • ‡ = Partner data that is not subject to review by the National Climate Archives
Date modified: